Location: Aressy
(43.2833°N, 0.3167°W)
Time: 19:05:12
(UTC+00:00)

USA 229 - Pass Details

Date: 28 January 2021
Orbit: 964 x 1248 km, 63.4° (Epoch: 03 March)

Event Time Altitude Azimuth Distance (km) Brightness Sun altitude
Rises 17:23:29 0° 325° (NW) 3,942 6.9 -3.4°
Reaches altitude 10° 17:26:13 10° 331° (NNW) 3,023 6.2 -3.9°
Maximum altitude 17:33:15 50° 45° (NE) 1,482 4.1 -5.1°
Drops below altitude 10° 17:40:40 10° 120° (ESE) 3,180 5.8 -6.3°
Sets 17:43:36 0° 125° (SE) 4,163 6.4 -6.9°
